EW1701 Weather Reports


time (UTC)temp
C
wind
direction
speed
KPH
gust
KPH
rain 1hr
cm
rain 24hr
cm
rain mn
cm
humidity
%
barometer
mb
20260506123049 11 22 6.4 16.1 0.00 0.00 0.00 44 1016.7
20260506121547 10 56 6.4 17.7 0.00 0.00 0.00 45 1016.8
20260506120045 11 71 4.8 16.1 0.00 0.00 0.00 43 1016.9
20260506114551 10 105 6.4 19.3 0.00 0.00 0.00 49 1016.9
20260506113055 8 32 3.2 12.9 0.00 0.00 0.00 53 1017.1
20260506111544 8 57 6.4 17.7 0.00 0.00 0.00 53 1017.0
20260506110055 8 51 6.4 14.5 0.00 0.00 0.00 54 1017.0
20260506104552 8 44 3.2 12.9 0.00 0.00 0.00 52 1017.1
20260506103050 8 56 3.2 14.5 0.00 0.00 0.00 57 1017.2
20260506101555 8 340 3.2 12.9 0.00 0.00 0.00 57 1017.0
20260506100101 7 34 4.8 17.7 0.00 0.00 0.00 56 1017.2
20260506094551 8 30 6.4 19.3 0.00 0.00 0.00 54 1017.1
20260506093051 8 22 6.4 19.3 0.00 0.00 0.00 58 1017.2
20260506091546 7 41 4.8 16.1 0.00 0.00 0.00 59 1017.2
20260506090051 8 0 1.6 17.7 0.00 0.00 0.00 59 1017.2
20260506084619 8 46 3.2 14.5 0.00 0.00 0.00 56 1017.2
20260506083044 8 0 1.6 14.5 0.00 0.00 0.00 57 1017.2
20260506081555 8 13 1.6 11.3 0.00 0.00 0.00 60 1017.2
20260506073048 6 13 3.2 14.5 0.00 0.00 0.00 63 1017.1
20260506071553 6 0 0.0 3.2 0.00 0.00 0.00 64 1017.0
20260506061545 3 0 0.0 1.6 0.00 0.00 0.00 69 1016.7
20260506044700 1 0 0.0 0.0 0.00 0.00 0.00 73 1016.7
20260506043046 1 0 0.0 0.0 0.00 0.00 0.00 73 1016.7
20260506041601 1 0 0.0 1.6 0.00 0.00 0.00 72 1016.8
20260506040052 1 0 0.0 0.0 0.00 0.00 0.00 72 1016.8
20260506034621 1 0 0.0 0.0 0.00 0.00 0.00 72 1016.9
20260506033046 1 0 0.0 0.0 0.00 0.00 0.00 72 1016.8
20260506031551 1 0 0.0 0.0 0.00 0.00 0.00 72 1017.0
20260506030044 1 0 0.0 1.6 0.00 0.00 0.00 71 1017.0
20260506024551 2 0 0.0 0.0 0.00 0.00 0.00 72 1016.9
20260506023107 2 0 0.0 0.0 0.00 0.00 0.00 72 1017.0
20260506021548 2 0 0.0 0.0 0.00 0.00 0.00 72 1016.9
20260506020047 2 0 0.0 0.0 0.00 0.00 0.00 72 1017.0
20260506014553 2 0 0.0 0.0 0.00 0.00 0.00 72 1017.1
20260506013053 2 0 0.0 0.0 0.00 0.00 0.00 72 1017.1
20260506011549 2 0 0.0 0.0 0.00 0.00 0.00 72 1017.2
20260506010100 2 0 0.0 0.0 0.00 0.00 0.00 72 1017.1
20260506004603 2 0 0.0 0.0 0.00 0.00 0.00 72 1017.1
20260506003102 2 0 0.0 0.0 0.00 0.00 0.00 72 1017.2
20260506001547 2 0 0.0 0.0 0.00 0.00 0.00 72 1017.3
20260506000047 3 0 0.0 0.0 0.00 0.00 0.00 72 1017.2
20260505234601 3 0 0.0 0.0 0.00 0.00 0.00 72 1017.3
20260505233051 3 0 0.0 0.0 0.00 0.00 0.00 72 1017.5
20260505231550 3 0 0.0 0.0 0.00 0.00 0.00 72 1017.4
20260505230054 3 0 0.0 0.0 0.00 0.00 0.00 72 1017.6
20260505224552 3 0 0.0 0.0 0.00 0.00 0.00 72 1017.5
20260505223053 3 0 0.0 0.0 0.00 0.00 0.00 71 1017.5
20260505221551 3 0 0.0 0.0 0.00 0.00 0.00 71 1017.6
20260505214601 4 0 0.0 0.0 0.00 0.00 0.00 71 1017.5
20260505213046 5 0 0.0 0.0 0.00 0.00 0.00 70 1017.6
20260505211602 5 0 0.0 3.2 0.00 0.00 0.00 70 1017.8
20260505210100 5 0 0.0 4.8 0.00 0.00 0.00 70 1017.8
20260505204550 6 0 0.0 4.8 0.00 0.00 0.00 69 1017.8
20260505203055 6 0 0.0 6.4 0.00 0.00 0.00 69 1017.7
20260505201552 6 0 0.0 14.5 0.00 0.00 0.00 69 1017.7
20260505200052 6 0 1.6 11.3 0.00 0.00 0.00 69 1017.6
20260505194554 6 0 0.0 12.9 0.00 0.00 0.00 68 1017.5
20260505193048 7 33 0.0 16.1 0.00 0.00 0.00 67 1017.4
20260505191557 7 44 3.2 14.5 0.00 0.00 0.00 66 1017.4
20260505190051 7 46 4.8 17.7 0.00 0.00 0.00 66 1017.3
20260505184548 7 19 4.8 16.1 0.00 0.00 0.00 66 1017.2
20260505183052 7 0 4.8 19.3 0.00 0.00 0.00 65 1017.2
20260505181542 7 25 3.2 16.1 0.00 0.00 0.00 65 1017.1
20260505180052 7 34 1.6 16.1 0.00 0.00 0.00 65 1017.2
20260505174608 7 50 6.4 22.5 0.00 0.00 0.00 64 1017.1
20260505173046 8 42 8.0 17.7 0.00 0.00 0.00 64 1017.1
20260505171545 8 0 1.6 19.3 0.00 0.00 0.00 63 1017.0
20260505170107 8 5 1.6 17.7 0.00 0.00 0.00 63 1017.0
20260505164546 8 35 3.2 19.3 0.00 0.00 0.00 63 1017.0
20260505163050 8 345 1.6 29.0 0.00 0.00 0.00 63 1016.9
20260505161554 8 0 8.0 19.3 0.00 0.00 0.00 63 1016.7
20260505153054 8 13 11.3 22.5 0.00 0.00 0.00 64 1016.6
20260505151552 8 36 3.2 24.1 0.00 0.00 0.00 65 1016.5
20260505124544 9 46 6.4 16.1 0.00 0.00 0.00 65 1016.0